KD3ADD Weather Reports


time (UTC)temp
C
wind
direction
speed
KPH
gust
KPH
rain 1hr
cm
rain 24hr
cm
rain mn
cm
humidity
%
barometer
mb
20260504100537 5 311 0.0 3.2 0.00 0.00 0.00 67 1013.8
20260504081558 6 0 0.0 1.6 0.00 0.00 0.00 63 1014.0
20260504081035 6 0 0.0 1.6 0.00 0.00 0.00 62 1014.0
20260504080535 6 0 0.0 1.6 0.00 0.00 0.00 62 1014.0
20260504050535 8 0 0.0 0.0 0.00 0.00 0.00 53 1014.0
20260504045534 8 0 0.0 0.0 0.00 0.00 0.00 51 1014.1
20260504045034 8 0 0.0 0.0 0.00 0.00 0.00 51 1014.1
20260504044546 8 0 0.0 0.0 0.00 0.00 0.00 50 1014.1
20260504044037 8 0 0.0 0.0 0.00 0.00 0.00 50 1014.1
20260504043537 8 0 0.0 3.2 0.00 0.00 0.00 51 1014.0
20260504043048 8 0 0.0 3.2 0.00 0.00 0.00 50 1014.0
20260504042537 8 0 0.0 3.2 0.00 0.00 0.00 50 1014.0
20260504042038 9 0 0.0 3.2 0.00 0.00 0.00 50 1013.9
20260504041545 9 289 0.0 1.6 0.00 0.00 0.00 49 1014.0
20260504041037 9 0 0.0 0.0 0.00 0.00 0.00 49 1014.0
20260504040537 9 0 0.0 0.0 0.00 0.00 0.00 49 1014.0
20260504040054 10 0 0.0 3.2 0.00 0.00 0.00 48 1014.0
20260504035540 10 0 0.0 3.2 0.00 0.00 0.00 48 1013.9
20260504035036 10 0 0.0 3.2 0.00 0.00 0.00 48 1013.9
20260504034600 10 0 0.0 3.2 0.00 0.00 0.00 48 1013.9
20260504034036 10 0 0.0 3.2 0.00 0.00 0.00 48 1013.9
20260504033536 10 298 0.0 3.2 0.00 0.00 0.00 48 1013.8
20260504033045 10 298 0.0 3.2 0.00 0.00 0.00 47 1013.8
20260504032536 10 0 0.0 3.2 0.00 0.00 0.00 47 1013.8
20260504032038 10 0 0.0 3.2 0.00 0.00 0.00 47 1013.9
20260504031543 10 286 0.0 3.2 0.00 0.00 0.00 47 1013.7
20260504031037 10 0 0.0 3.2 0.00 0.00 0.00 47 1013.7
20260504030537 10 0 0.0 3.2 0.00 0.00 0.00 46 1013.7
20260504030045 10 271 0.0 3.2 0.00 0.00 0.00 47 1013.6
20260504025537 10 0 0.0 0.0 0.00 0.00 0.00 46 1013.7
20260504025037 10 0 0.0 3.2 0.00 0.00 0.00 46 1013.6
20260504024550 10 0 0.0 3.2 0.00 0.00 0.00 46 1013.7
20260504024037 10 0 0.0 3.2 0.00 0.00 0.00 46 1013.7
20260504023537 10 0 0.0 3.2 0.00 0.00 0.00 46 1013.6
20260504023046 10 0 0.0 3.2 0.00 0.00 0.00 46 1013.7
20260504022537 10 0 0.0 3.2 0.00 0.00 0.00 46 1013.7
20260504022037 10 0 0.0 3.2 0.00 0.00 0.00 46 1013.7
20260504021543 10 0 0.0 3.2 0.00 0.00 0.00 45 1013.7
20260504021038 10 0 0.0 3.2 0.00 0.00 0.00 45 1013.7
20260504020536 10 0 0.0 3.2 0.00 0.00 0.00 45 1013.7
20260504020053 11 0 0.0 3.2 0.00 0.00 0.00 44 1013.7
20260504015538 11 0 0.0 3.2 0.00 0.00 0.00 44 1013.7
20260504015036 11 0 0.0 3.2 0.00 0.00 0.00 43 1013.7
20260504014559 11 0 0.0 3.2 0.00 0.00 0.00 43 1013.6
20260504014038 11 0 0.0 3.2 0.00 0.00 0.00 43 1013.6
20260504013537 11 0 0.0 3.2 0.00 0.00 0.00 43 1013.5
20260504013053 11 0 0.0 3.2 0.00 0.00 0.00 42 1013.5
20260504012537 11 0 0.0 3.2 0.00 0.00 0.00 41 1013.4
20260504012037 11 0 0.0 3.2 0.00 0.00 0.00 41 1013.4
20260504011558 12 0 0.0 1.6 0.00 0.00 0.00 41 1013.4
20260504011036 12 0 0.0 1.6 0.00 0.00 0.00 41 1013.4
20260504010537 12 0 0.0 1.6 0.00 0.00 0.00 40 1013.3
20260504010048 12 0 0.0 1.6 0.00 0.00 0.00 39 1013.3
20260504005538 12 0 0.0 3.2 0.00 0.00 0.00 39 1013.3
20260504005037 12 0 0.0 3.2 0.00 0.00 0.00 38 1013.3
20260504004546 12 0 0.0 3.2 0.00 0.00 0.00 38 1013.3
20260504004037 13 0 0.0 3.2 0.00 0.00 0.00 38 1013.2
20260504003541 13 259 0.0 3.2 0.00 0.00 0.00 37 1013.2
20260504003059 13 0 0.0 3.2 0.00 0.00 0.00 37 1013.1
20260504002537 13 290 0.0 4.8 0.00 0.00 0.00 36 1013.1
20260504002037 13 284 0.0 4.8 0.00 0.00 0.00 36 1013.1
20260504001546 13 267 0.0 9.7 0.00 0.00 0.00 36 1013.0
20260504001037 13 288 0.0 9.7 0.00 0.00 0.00 35 1013.0
20260504000538 13 267 1.6 9.7 0.00 0.00 0.00 35 1012.9
20260504000048 13 283 0.0 6.4 0.00 0.00 0.00 35 1012.8
20260503235541 14 277 1.6 6.4 0.00 0.00 0.00 34 1012.7
20260503235037 14 318 1.6 4.8 0.00 0.00 0.00 34 1012.5
20260503234551 14 274 0.0 8.0 0.00 0.00 0.00 34 1012.5
20260503234040 14 281 1.6 9.7 0.00 0.00 0.00 34 1012.4
20260503233537 14 342 3.2 11.3 0.00 0.00 0.00 34 1012.5
20260503233048 14 348 3.2 11.3 0.00 0.00 0.00 33 1012.5
20260503232537 15 261 3.2 12.9 0.00 0.00 0.00 33 1012.4
20260503232039 15 285 3.2 12.9 0.00 0.00 0.00 32 1012.4
20260503231547 15 321 4.8 12.9 0.00 0.00 0.00 32 1012.4
20260503231038 15 286 3.2 12.9 0.00 0.00 0.00 32 1012.4
20260503230537 15 266 4.8 17.7 0.00 0.00 0.00 32 1012.4
20260503230048 15 265 3.2 19.3 0.00 0.00 0.00 32 1012.4
20260503225537 15 252 4.8 19.3 0.00 0.00 0.00 31 1012.4
20260503225037 15 267 1.6 16.1 0.00 0.00 0.00 32 1012.3
20260503224544 15 285 4.8 16.1 0.00 0.00 0.00 32 1012.3
20260503224037 15 282 3.2 12.9 0.00 0.00 0.00 31 1012.3
20260503223537 16 313 4.8 17.7 0.00 0.00 0.00 31 1012.3
20260503223044 16 220 3.2 17.7 0.00 0.00 0.00 31 1012.3
20260503222537 16 272 3.2 14.5 0.00 0.00 0.00 32 1012.3
20260503222037 16 290 4.8 16.1 0.00 0.00 0.00 31 1012.3
20260503221541 16 321 4.8 17.7 0.00 0.00 0.00 31 1012.4
20260503221037 16 315 4.8 17.7 0.00 0.00 0.00 31 1012.4
20260503220537 16 247 6.4 17.7 0.00 0.00 0.00 30 1012.4
20260503220052 16 292 4.8 17.7 0.00 0.00 0.00 31 1012.4
20260503215536 16 282 6.4 14.5 0.00 0.00 0.00 32 1012.4
20260503215036 16 260 6.4 12.9 0.00 0.00 0.00 31 1012.3
20260503214552 16 220 3.2 12.9 0.00 0.00 0.00 31 1012.3
20260503214036 16 346 4.8 19.3 0.00 0.00 0.00 31 1012.4
20260503213537 16 81 4.8 19.3 0.00 0.00 0.00 31 1012.4
20260503213047 16 250 4.8 14.5 0.00 0.00 0.00 32 1012.4
20260503212539 16 284 3.2 12.9 0.00 0.00 0.00 31 1012.3
20260503212038 16 285 3.2 14.5 0.00 0.00 0.00 32 1012.3
20260503211547 16 41 4.8 16.1 0.00 0.00 0.00 31 1012.3
20260503211037 16 286 4.8 16.1 0.00 0.00 0.00 30 1012.3
20260503210537 16 300 3.2 20.9 0.00 0.00 0.00 31 1012.3
20260503205537 16 273 4.8 12.9 0.00 0.00 0.00 32 1012.4
20260503205035 16 261 3.2 17.7 0.00 0.00 0.00 33 1012.4
20260503204548 16 313 8.0 17.7 0.00 0.00 0.00 32 1012.4
20260503204040 15 248 4.8 14.5 0.00 0.00 0.00 32 1012.3
20260503203538 15 303 1.6 14.5 0.00 0.00 0.00 35 1012.4
20260503203052 15 80 3.2 14.5 0.00 0.00 0.00 32 1012.4
20260503202537 15 277 4.8 17.7 0.00 0.00 0.00 32 1012.5
20260503202037 15 344 4.8 17.7 0.00 0.00 0.00 32 1012.5
20260503201547 16 284 4.8 16.1 0.00 0.00 0.00 31 1012.5
20260503201038 16 279 6.4 16.1 0.00 0.00 0.00 31 1012.5
20260503200540 16 182 3.2 14.5 0.00 0.00 0.00 35 1012.5
20260503200050 16 280 3.2 16.1 0.00 0.00 0.00 32 1012.5
20260503195538 16 296 3.2 16.1 0.00 0.00 0.00 32 1012.6
20260503195037 16 274 4.8 16.1 0.00 0.00 0.00 32 1012.7
20260503194547 16 24 4.8 17.7 0.00 0.00 0.00 31 1012.9
20260503194037 16 307 8.0 17.7 0.00 0.00 0.00 30 1013.0
20260503193538 16 273 3.2 9.7 0.00 0.00 0.00 32 1013.0
20260503193049 15 250 4.8 12.9 0.00 0.00 0.00 34 1013.1
20260503192537 15 271 4.8 16.1 0.00 0.00 0.00 31 1013.0
20260503192037 15 240 3.2 22.5 0.00 0.00 0.00 32 1013.1
20260503191550 16 317 8.0 22.5 0.00 0.00 0.00 34 1013.2
20260503191038 15 284 4.8 16.1 0.00 0.00 0.00 39 1013.2
20260503190536 15 289 1.6 19.3 0.00 0.00 0.00 33 1013.2
20260503190049 15 15 3.2 19.3 0.00 0.00 0.00 33 1013.4
20260503185537 15 265 4.8 17.7 0.00 0.00 0.00 32 1013.6
20260503185038 15 327 4.8 12.9 0.00 0.00 0.00 33 1013.5
20260503184600 15 43 3.2 12.9 0.00 0.00 0.00 31 1013.6
20260503184038 15 254 3.2 11.3 0.00 0.00 0.00 34 1013.7
20260503183538 14 32 4.8 20.9 0.00 0.00 0.00 35 1013.7
20260503183056 14 238 4.8 20.9 0.00 0.00 0.00 33 1013.8
20260503182537 14 309 4.8 20.9 0.00 0.00 0.00 31 1013.9
20260503182036 14 291 3.2 16.1 0.00 0.00 0.00 32 1013.9
20260503181608 15 301 6.4 14.5 0.00 0.00 0.00 35 1014.0
20260503181036 14 264 3.2 16.1 0.00 0.00 0.00 33 1013.9
20260503180536 14 293 4.8 29.0 0.00 0.00 0.00 39 1013.8
20260503180047 14 300 8.0 29.0 0.00 0.00 0.00 34 1013.8
20260503175540 14 269 4.8 17.7 0.00 0.00 0.00 36 1014.0
20260503175036 13 254 4.8 17.7 0.00 0.00 0.00 36 1013.8
20260503174549 13 261 4.8 22.5 0.00 0.00 0.00 35 1013.9
20260503174037 14 104 4.8 22.5 0.00 0.00 0.00 34 1014.1
20260503173538 13 263 3.2 17.7 0.00 0.00 0.00 38 1014.1
20260503173058 13 270 4.8 17.7 0.00 0.00 0.00 44 1014.1
20260503172541 13 262 4.8 14.5 0.00 0.00 0.00 39 1014.1
20260503172036 12 247 4.8 14.5 0.00 0.00 0.00 35 1014.2
20260503171548 12 34 4.8 12.9 0.00 0.00 0.00 36 1014.3
20260503171036 12 26 1.6 11.3 0.00 0.00 0.00 36 1014.3
20260503170537 12 16 1.6 11.3 0.00 0.00 0.00 40 1014.3
20260503150537 10 134 4.8 17.7 0.00 0.00 0.00 39 1015.1
20260503131036 7 336 3.2 16.1 0.00 0.00 0.00 51 1015.6
20260503130537 7 302 1.6 16.1 0.00 0.00 0.00 52 1015.6
20260503110535 5 91 3.2 12.9 0.00 0.00 0.00 60 1014.7